Chippewa, MI

4:23 PM EDT on October 19, 2019 (GMT -0400)
Chippewa County International

Weather History for KCIU - August, 2019

Change the Weather History Date:

Wednesday, August 28, 2019

  Actual Average Record
Temperature  
Mean Temperature 59 °F -  
Max Temperature 63 °F 72 °F 84 °F (1983)
Min Temperature 55 °F 49 °F 34 °F (1982)
Degree Days  
Heating Degree Days 6    
Growing Degree Days 9 (Base 50)    
Moisture  
Dew Point 54 °F    
Average Humidity 86    
Maximum Humidity 100    
Minimum Humidity 67    
Precipitation  
Precipitation 0.40 in - - ()
Sea Level Pressure  
Sea Level Pressure 29.70 in    
Wind  
Wind Speed 7 mph ()    
Max Wind Speed 18 mph    
Max Gust Speed 24 mph    
Visibility 9.7 miles    
Events Rain    
Averages and records for this station are not official NWS values.
T = Trace of Precipitation, MM = Missing Value Source: Averaged Metar Reports

Daily Weather History Graph

Daily Weather History Graph

Search for Another Location

Airport or City:

Astronomy

Aug. 28, 2019 Rise Set
Actual Time 6:52 AM EDT 8:24 PM EDT
Civil Twilight 6:21 AM EDT 8:55 PM EDT
Nautical Twilight 5:43 AM EDT 9:33 PM EDT
Astronomical Twilight 5:02 AM EDT 10:14 PM EDT
Moon 4:13 AM EDT (8/28) 7:44 PM EDT (8/28)
Length of Visible Light 14h 34m
Length of Day
13h 31m
Waning Crescent, 5% of the Moon is Illuminated
Aug 28
Waning Crescent
Aug 30
New
Sep 5
First Quarter
Sep 14
Full
Sep 21
Last Quarter

Hourly Weather History & Observations

Time (EDT) Temp. Dew Point Humidity Pressure Visibility Wind Dir Wind Speed Gust Speed Precip Events Conditions
12:21 AM 55.4 °F 55.4 °F 100% 29.70 in 10.0 mi SSE 6.9 mph - N/A   Partly Cloudy
12:56 AM 59.0 °F 57.0 °F 93% 29.69 in 10.0 mi Variable 6.9 mph - N/A   Scattered Clouds
1:56 AM 57.0 °F 55.9 °F 96% 29.68 in 10.0 mi SSE 6.9 mph - 0.04 in   Partly Cloudy
2:56 AM 55.9 °F 54.0 °F 93% 29.68 in 10.0 mi South 4.6 mph - 0.04 in   Clear
3:56 AM 57.0 °F 54.0 °F 89% 29.67 in 10.0 mi South 5.8 mph - 0.03 in   Clear
4:56 AM 55.0 °F 53.1 °F 93% 29.65 in 10.0 mi South 4.6 mph - 0.04 in   Clear
5:56 AM 55.9 °F 54.0 °F 93% 29.65 in 10.0 mi South 8.1 mph - 0.03 in   Partly Cloudy
6:30 AM 55.4 °F 53.6 °F 94% 29.66 in 10.0 mi South 5.8 mph - 0.02 in   Mostly Cloudy
6:56 AM 55.9 °F 54.0 °F 93% 29.65 in 10.0 mi South 8.1 mph - 0.03 in   Overcast
7:20 AM 55.4 °F 53.6 °F 94% 29.65 in 10.0 mi South 6.9 mph - 0.01 in   Mostly Cloudy
7:56 AM 57.9 °F 55.0 °F 90% 29.66 in 10.0 mi SSW 4.6 mph - 0.03 in   Overcast
8:27 AM 60.8 °F 55.4 °F 82% 29.66 in 10.0 mi Variable 3.5 mph - 0.01 in   Mostly Cloudy
8:43 AM 60.8 °F 57.2 °F 88% 29.66 in 10.0 mi SSW 5.8 mph - 0.02 in   Mostly Cloudy
8:56 AM 61.0 °F 57.0 °F 87% 29.66 in 10.0 mi Variable 4.6 mph - 0.02 in   Scattered Clouds
9:24 AM 60.8 °F 57.2 °F 88% 29.66 in 10.0 mi Variable 5.8 mph - 0.01 in   Mostly Cloudy
9:53 AM 60.8 °F 57.2 °F 88% 29.66 in 10.0 mi Variable 6.9 mph - 0.02 in   Mostly Cloudy
9:56 AM 60.1 °F 55.9 °F 86% 29.66 in 10.0 mi Variable 6.9 mph - 0.03 in   Mostly Cloudy
10:56 AM 57.9 °F 57.0 °F 97% 29.66 in 4.0 mi WSW 4.6 mph - 0.02 in Rain Heavy Rain
11:33 AM 59.0 °F 57.2 °F 94% 29.66 in 6.0 mi West 9.2 mph - N/A Rain Light Rain
11:45 AM 59.0 °F 57.2 °F 94% 29.66 in 10.0 mi Variable 5.8 mph - N/A Rain Light Rain
11:56 AM 60.1 °F 57.9 °F 93% 29.66 in 10.0 mi SW 6.9 mph - N/A   Overcast
12:07 PM 60.8 °F 57.2 °F 88% 29.67 in 10.0 mi West 18.4 mph - 0.01 in   Overcast
12:29 PM 59.0 °F 53.6 °F 82% 29.68 in 10.0 mi West 12.7 mph 16.1 mph 0.01 in   Overcast
12:56 PM 60.1 °F 53.1 °F 78% 29.68 in 10.0 mi West 15.0 mph 20.7 mph 0.02 in   Overcast
1:22 PM 62.6 °F 53.6 °F 72% 29.69 in 10.0 mi WSW 13.8 mph 20.7 mph 0.01 in   Overcast
1:47 PM 60.8 °F 51.8 °F 72% 29.69 in 10.0 mi West 16.1 mph 24.2 mph 0.02 in   Overcast
1:56 PM 60.1 °F 52.0 °F 75% 29.69 in 9.0 mi WSW 10.4 mph 19.6 mph 0.02 in   Overcast
2:56 PM 62.1 °F 53.1 °F 72% 29.70 in 10.0 mi WSW 9.2 mph 18.4 mph 0.01 in   Overcast
3:56 PM 63.0 °F 53.1 °F 70% 29.71 in 10.0 mi West 15.0 mph 24.2 mph 0.01 in   Overcast
4:56 PM 63.0 °F 52.0 °F 67% 29.73 in 10.0 mi West 16.1 mph 23.0 mph N/A   Overcast
5:56 PM 57.9 °F 54.0 °F 87% 29.75 in 9.0 mi WSW 10.4 mph - 0.01 in Rain Light Rain
6:40 PM 59.0 °F 53.6 °F 82% 29.76 in 10.0 mi West 9.2 mph - 0.00 in   Overcast
6:56 PM 60.1 °F 54.0 °F 80% 29.76 in 10.0 mi West 9.2 mph - 0.00 in   Overcast
7:56 PM 59.0 °F 52.0 °F 78% 29.78 in 10.0 mi WNW 11.5 mph - 0.01 in   Overcast
8:56 PM 57.0 °F 52.0 °F 83% 29.81 in 10.0 mi West 8.1 mph - 0.00 in   Overcast
9:07 PM 57.2 °F 51.8 °F 82% 29.81 in 10.0 mi West 6.9 mph - N/A   Overcast
9:56 PM 55.9 °F 53.1 °F 90% 29.82 in 10.0 mi West 5.8 mph - N/A   Overcast
10:56 PM 57.0 °F 52.0 °F 83% 29.83 in 10.0 mi West 8.1 mph - 0.01 in   Overcast
11:56 PM 57.0 °F 52.0 °F 83% 29.83 in 10.0 mi WSW 4.6 mph - N/A   Overcast